Location: Sydney
(46.1500°N, 60.1670°W)
Time: 13:34:59
(UTC-03:00)

Iridium 90 - Visible Passes

Search period start: 04 September 2015 00:00
Search period end: 14 September 2015 00:00
Orbit: 747 x 750 km, 86.4° (Epoch: 02 September)

Date Brightness Start Highest point End Pass type
(mag) Time Alt. Az. Time Alt. Az. Time Alt. Az.
04 Sep 9.3 05:34:37 10° NE 05:35:30 11° ENE 05:36:43 10° E visible
04 Sep 6.3 20:06:22 10° SSW 20:11:20 58° W 20:16:21 10° N visible
05 Sep 8.5 21:06:45 10° WSW 21:10:00 16° WNW 21:13:03 10° NNW visible
06 Sep 8.7 05:48:32 10° NNE 05:51:58 19° ENE 05:55:34 10° ESE visible
06 Sep 7.5 20:22:54 10° SW 20:27:29 33° WNW 20:32:02 10° NNW visible
08 Sep 8.4 20:40:04 10° WSW 20:43:46 20° WNW 20:47:21 10° NNW visible
09 Sep 8.8 05:22:51 10° NE 05:25:44 15° ENE 05:28:49 10° ESE visible
09 Sep 7.1 19:56:34 10° SSW 20:01:20 40° W 20:06:04 10° N visible
10 Sep 9.0 20:58:31 10° W 21:00:13 11° WNW 21:01:38 10° NW visible
11 Sep 8.0 05:37:55 10° NNE 05:42:06 26° ENE 05:46:22 10° SE visible
11 Sep 8.2 20:13:29 10° SW 20:17:34 23° WNW 20:21:33 10° NNW visible
12 Sep 8.9 04:57:23 10° NE 04:59:29 13° ENE 05:01:52 10° E visible
13 Sep 6.9 05:53:27 10° N 05:58:19 44° E 06:03:10 10° SSE visible
13 Sep 8.9 20:31:17 10° W 20:33:57 14° WNW 20:36:24 10° NW visible
